CZ-6A DEB, 61476

Orbit data source: Space-Track

CZ-6A DEB, 61476 is space debris in LEO originally from a launch on Tue, 06 Aug 2024 UTC launched from the Taiyaun Space Center, China (TSC). Debris objects in space refer to the collection of defunct objects orbiting the Earth. Examples of debris include non-operational satellites, rocket bodies, and fragments generated from explosions, collisions, or faulty payload assembly.

Loading next visibility...
Identifier
61476, 2024-140AAJ
Orbit
LEO
Last TLE update
21 hours ago
Origin
Manufacturer
SAST
Mission
Spacecraft
Bus & Motor
Unknown
Mass
Unknown
Launch date (UTC)
2024-08-06 (11 months ago)
Launch vehicle
Unknown
Launch site
Taiyaun Space Center, China (TSC)
Object type
Payload
Rocket body
Debris
Shape & HBR
Unknown
Radar Cross Section
Small (<0.1 m²)

Expand to show TLE details & history

TLE from 21 hours ago
0 CZ-6A DEB
1 61476U 24140AAJ 25189.82998006  .00000231  00000-0  12757-3 0  9993
2 61476  88.9917 313.7269 0104098 238.7286 120.3669 14.05677975 43226
Epoch: 2025-07-08T19:55Z
TLE epoch observation values (Epoch: 2025-07-08T19:55:10.277Z)
Latitude
0.00002°
Longitude
87.91474°
Altitude
915.986 km
Speed
7.374 km/s
True Right ascension
20h 54m 54s
True Declination
0° 00' 00"
Sunlit
Object was in full shadow at epoch
Visualization orbit readout
Latitude
14.74369°
Longitude
88.08299°
Altitude
932.958 km
Speed
7.358 km/s
Apparent Right ascension
19h 13m 47s
Apparent Declination
-12° 14' 59"
Sunlit
Object is in full shadow
Visualization observer readout
Local Sidereal Time
04:40:27
Azimuth
298.503° NW
Elevation
-46.392°
Doppler factor
1
Orbital elements
Apogee altitude
946.635 km
Perigee altitude
795.707 km
Semi-major axis
7,249.308 km
Eccentricity
0.01041
Inclination
88.9917°
RAAN
313.7269°
Arg. of periapsis
238.7286°
True anomaly
Unknown
Mean anomaly
120.3669°
Eccentric anomaly
Unknown
Mean motion
3.5164 °/min
Orbital period
102.38 mins
BSTAR
0.00012757
Loading maneuver chart data...
Loading SW <> Apogee altitude chart data...
Loading historical data...
Loading historical data...
Loading historical data...
Loading historical data...
Loading historical data...
Loading historical data...
Loading historical data...

CZ-6A DEB Visibility forecast

Observer location: undefined°, undefined°

Span
Click to sort rows by Start time (UTC) header in descending order
Start Az.
Max El. time (UTC)
Max El. Az.
Max El.
End time (UTC)
End Az.
10 mins2025-07-09 20:25:28.887Z4.505° NNE2025-07-09 20:30:28.887Z61.525° ENE43.958°2025-07-09 20:35:28.887Z175.539° S
9 mins2025-07-10 07:55:28.887Z139.94° SSE2025-07-10 07:59:28.887Z83.093° E31.935°2025-07-10 08:04:28.887Z17.708° NNE
8 mins2025-07-10 09:38:28.887Z229.112° WSW2025-07-10 09:42:28.887Z285.98° WNW26.251°2025-07-10 09:46:28.887Z333.102° NNW
|